#timestamp,LO_Frequency,Hit,StdDev 
1619643615.7,286047004.4,N
1619643635.6,286047001.5,N
1619643655.4,286047000.3,N
1619643675.2,286047000.7,N
1619643695.1,286046997.5,N
1619643696.0,286046997.5,N
1619643715.8,286046993.4,Y
1619643735.7,286046995.7,P
1619643755.5,286046995.5,N
1619643775.3,286046995.9,N
1619643795.2,286046993.9,Y
1619643815.0,286046999.2,P
1619643815.9,286046999.2,N
1619643835.7,286046996.9,N
1619643855.6,286046997.8,N
1619643875.4,286046996.6,Y
1619643895.3,286046998.1,P
1619643915.1,286047001.2,P
1619643935.8,286046998.4,N
1619643955.7,286046998.1,N
1619643975.5,286046998.7,N
1619643995.4,286046998.6,N
1619644015.2,286047000.6,N
1619644035.0,286047002.0,N
1619644035.9,286047002.0,N
1619644055.8,286047006.0,Y
1619644075.6,286047004.6,P
1619644095.5,286047005.8,N
1619644115.3,286047003.5,N
1619644135.1,286047003.3,N
1619644155.9,286047005.8,N
1619644175.7,286047002.9,N
1619644195.5,286047005.9,N
1619644215.4,286047005.6,N
1619644235.2,286047003.7,N
1619644255.1,286047002.7,N
1619644256.0,286047002.7,N
1619644275.8,286047000.3,N
1619644295.6,286047004.4,N
1619644315.5,286047003.8,N
1619644335.3,286047004.4,N
1619644355.2,286047002.0,N
1619644375.0,286047002.2,N
1619644375.9,286047002.2,N
1619644395.7,286047001.9,N
1619644415.6,286047002.0,N
1619644435.4,286047000.2,N
1619644455.3,286047000.2,N
1619644475.1,286047000.1,N
1619644495.8,286047004.0,N
1619644515.7,286047005.6,N
1619644535.5,286047005.6,N
1619644555.4,286047005.5,N
1619644575.2,286047005.3,N
1619644595.0,286047005.4,N
1619644595.9,286047005.4,N
1619644615.8,286047006.0,Y
1619644635.6,286046999.4,P
1619644655.5,286046999.6,N
1619644675.3,286047011.9,P
1619644695.1,286046997.5,N
1619644715.9,286046997.9,N
1619644735.7,286046997.7,N
1619644755.6,286046997.6,N
1619644775.4,286046995.8,N
1619644795.2,286046996.0,N
1619644815.1,286046997.1,N
1619644816.0,286046997.1,N
1619644835.8,286046997.0,N
1619644855.7,286047000.7,N
1619644875.5,286047001.1,N
1619644895.3,286047000.4,N
1619644915.2,286047001.1,N
1619644935.0,286046999.0,N
1619644935.9,286046999.0,N
1619644955.8,286046997.2,N
1619644975.6,286046994.9,N
1619644995.5,286046996.9,N
1619645015.3,286046999.2,N
1619645035.1,286046998.6,N
1619645055.9,286046999.0,N
1619645075.7,286046999.6,N
1619645095.6,286046997.3,N
1619645115.4,286046997.3,N
1619645135.2,286046997.1,N
1619645155.1,286046996.5,N
1619645156.0,286046996.5,N
1619645175.8,286046997.8,N
1619645195.6,286046997.2,N
1619645215.5,286046997.5,N
1619645235.3,286046997.4,N
1619645255.2,286046996.5,N
1619645275.9,286046997.7,N
1619645295.7,286046995.0,Y
1619645315.6,286046997.6,P
1619645335.4,286046995.7,P
1619645355.2,286046995.0,P
1619645375.1,286046995.1,Y
1619645376.0,286046995.1,P
1619645395.8,286046998.5,N
1619645415.7,286046999.0,N
1619645435.5,286046998.4,N
1619645455.4,286046998.7,N
1619645475.2,286047001.0,N
1619645495.0,286047000.8,N
1619645495.9,286047000.8,N
1619645515.8,286046999.2,N
1619645535.6,286046998.4,N
1619645555.4,286046999.5,N
1619645575.3,286046997.4,N
1619645595.1,286046997.1,N
1619645615.9,286046997.7,N
1619645635.7,286046995.2,Y
1619645655.5,286047000.4,P
1619645675.4,286047004.4,P
1619645695.2,286047005.8,N
1619645715.1,286047006.2,N
1619645716.0,286047006.2,N
1619645735.8,286047006.4,N
1619645755.6,286047006.3,N
1619645775.5,286047007.5,N
1619645795.3,286047006.0,N
1619645815.1,286047004.8,N
1619645835.9,286047009.1,Y
1619645855.7,286047005.9,P
1619645875.6,286047004.4,P
1619645895.4,286046998.8,N
1619645915.2,286046997.7,N
1619645935.1,286046997.2,N
1619645936.0,286046997.2,N
1619645955.8,286046997.1,N
1619645975.7,286046999.6,N
1619645995.5,286047002.5,N
1619646015.3,286047000.2,N
1619646035.2,286047002.4,N
1619646055.0,286047002.7,N
1619646055.9,286047002.7,N
1619646075.8,286047000.3,N
1619646095.6,286047002.3,N
1619646115.4,286047004.1,N
1619646135.3,286047001.7,N
1619646155.1,286047004.4,N
1619646156.0,286047004.4,N
1619646175.8,286047002.2,N
1619646195.7,286047002.6,N
1619646215.5,286047001.1,N
1619646235.4,286047000.9,N
1619646255.2,286046998.9,N
1619646275.0,286046999.9,N
1619646275.9,286046999.9,N
1619646295.8,286047001.5,N
1619646315.6,286047002.1,N
1619646335.4,286047004.8,N
1619646355.3,286047003.7,N
1619646375.1,286047004.2,N
1619646395.9,286047006.0,N
1619646415.7,286047004.0,N
1619646435.5,286046999.7,N
1619646455.4,286046998.2,N
1619646475.2,286047002.1,N
1619646495.0,286047002.7,N
1619646495.9,286047002.7,N
1619646515.8,286046999.7,N
1619646535.6,286047002.6,N
1619646555.5,286047003.4,N
1619646575.3,286047004.3,N
1619646595.1,286047001.7,N
1619646615.9,286047000.3,N
1619646635.7,286046998.7,N
1619646655.5,286047000.8,N
1619646675.4,286047000.1,N
1619646695.2,286047002.9,N
1619646715.1,286047005.6,N
1619646716.0,286047005.6,N
1619646735.8,286047003.9,N
1619646755.6,286047001.4,N
1619646775.5,286047001.7,N
1619646795.3,286047003.1,N
1619646815.2,286047006.6,Y
1619646835.9,286047006.0,P
1619646855.7,286047005.7,P
1619646875.6,286047005.7,P
1619646895.4,286047004.8,Y
1619646915.2,286047001.0,P
1619646935.1,286047001.2,N
1619646936.0,286047001.2,N
1619646955.8,286046998.3,N
1619646975.7,286046998.9,N
1619646995.5,286046995.2,N
1619647015.3,286046995.4,N
1619647035.2,286046997.1,N
1619647055.0,286046996.3,N
1619647055.9,286046996.3,N
1619647075.8,286046993.6,N
1619647095.6,286046994.0,N
1619647115.4,286046993.3,N
1619647135.3,286046997.8,N
1619647155.1,286046996.4,N
1619647156.0,286046996.4,N
1619647175.8,286046996.0,N
1619647195.7,286046991.8,N
